Flag for U.S.A. Weather past 2 weeks in Pierre, South Dakota, U.S.A.

Now
35 °F

Overcast.


Feels Like: 28 °F
Forecast: 25 / 47 °F
Wind: 9 mph from Northeast

Location: Pierre Regional Airport


UV Index: 0 (Low)

Visibility: 10 mi


Pressure: 30.19 "Hg

Humidity: 64%

Dew point: 24 °F

Location of PierreLocation

Historic Weather in Pierre

°F

Pierre temperature yesterday

Maximum temperature yesterday: 65 °F (at 5:53 PM)
Minimum temperature yesterday: 13 °F (at 3:53 AM)
Average temperature yesterday: 39 °F

Past Weeks' High & Low Weather Summary

 TemperatureHumidityPressure
High83 °F (Apr 9, 3:53 PM)96% (Apr 3, 3:53 AM)30.30 "Hg (Apr 3, 3:53 AM)
Low13 °F (Apr 15, 3:53 AM)15% (Apr 9, 3:53 PM)29.52 "Hg (Apr 16, 1:53 AM)
Average41 °F61%29.94 "Hg
* Reported Apr 1 7:53 PM — Apr 16 7:53 PM, Pierre, Weather by CustomWeather, © 2014

Note: Actual official high and low records may vary slightly from our data, if they occured in-between our weather recording intervals... More about our weather records

Advertising

Historic Weather Conditions — Data for Previous 24 hours

 ConditionsComfort  
Time TempWeatherWind HumidityBarometerVisibility
7:53 PM
Apr 16
35 °FOvercast.9 mph64%30.19 "Hg10 mi
6:53 PM36 °FOvercast.16 mph64%30.16 "Hg10 mi
5:53 PM37 °FOvercast.16 mph62%30.12 "Hg10 mi
4:53 PM36 °FOvercast.17 mph67%30.10 "Hg10 mi
3:53 PM36 °FOvercast.18 mph67%30.08 "Hg10 mi
2:53 PM34 °FOvercast.17 mph73%30.05 "Hg10 mi
1:53 PM35 °FOvercast.21 mph75%30.01 "Hg10 mi
12:53 PM33 °FOvercast.21 mph78%29.97 "Hg10 mi
11:53 AM32 °FOvercast.22 mph82%29.94 "Hg10 mi
10:53 AM31 °FMostly cloudy.16 mph85%29.89 "Hg10 mi
9:53 AM30 °FOvercast.23 mph89%29.85 "Hg10 mi
8:53 AM30 °FLight snow. Ice fog.17 mph92%29.80 "Hg5 mi
7:53 AM31 °FLight freezing rain. Ice fog.14 mph89%29.74 "Hg6 mi
6:53 AM32 °FLight snow. Overcast.21 mph82%29.67 "Hg6 mi
5:53 AM35 °FLight snow. Overcast.21 mph70%29.64 "Hg9 mi
4:53 AM36 °FMostly cloudy.17 mph67%29.59 "Hg10 mi
3:53 AM36 °FOvercast.22 mph64%29.56 "Hg10 mi
2:53 AM39 °FOvercast.23 mph60%29.54 "Hg10 mi
1:53 AM40 °FOvercast.25 mph63%29.52 "Hg10 mi
12:53 AM43 °FOvercast.15 mph58%29.54 "Hg10 mi
11:53 PM
Apr 15
47 °FPassing clouds.16 mph50%29.54 "Hg10 mi
10:53 PM50 °FOvercast.17 mph46%29.54 "Hg10 mi
9:53 PM51 °FPassing clouds.20 mph42%29.56 "Hg10 mi
8:53 PM52 °FSunny.16 mph40%29.57 "Hg10 mi
Weather by CustomWeather, © 2014

See weather overview